Overview Statistics Trail Chart Weather Telemetry Raw packets
 

This is the latest recevied weather packets stored in our database for station/object K1BES. If no packets are shown the sender has not sent any weather packets the latest 10 day(s).

<< 64 65 66 67 68 69 70 >>
Time Temp. Humidity Pressure Rain* Wind** Luminosity Snow
1788202225 32.78° C 68% 1018.1 hPa 0 mm - 965 W/m² -
1788201924 32.78° C 66% 1018.1 hPa 0 mm - 960 W/m² -
1788201620 32.78° C 67% 1018.1 hPa 0 mm - 963 W/m² -
1788201319 32.78° C 67% 1018.1 hPa 0 mm - 935 W/m² -
1788201019 33.33° C 67% 1018.2 hPa 0 mm - 955 W/m² -
1788200713 32.78° C 67% 1018.4 hPa 0 mm - 980 W/m² -
1788200426 33.33° C 67% 1018.5 hPa 0 mm - 987 W/m² -
1788200104 33.33° C 69% 1018.7 hPa 0 mm - 963 W/m² -
1788199799 32.78° C 69% 1018.6 hPa 0 mm - 1000 W/m² -
1788199493 32.78° C 67% 1018.6 hPa 0 mm - 1018 W/m² -
1788199192 32.78° C 71% 1018.8 hPa 0 mm - 1023 W/m² -
1788198889 32.78° C 69% 1018.8 hPa 0 mm - 1026 W/m² -
1788198585 32.78° C 70% 1018.5 hPa 0 mm - 1035 W/m² -
1788198280 32.78° C 69% 1018.7 hPa 0 mm - 1034 W/m² -
1788197979 32.78° C 69% 1018.7 hPa 0 mm - 1046 W/m² -
1788197678 32.22° C 72% 1018.7 hPa 0 mm - 1037 W/m² -
1788197374 32.22° C 73% 1019 hPa 0 mm - 1049 W/m² -
1788197070 31.67° C 75% 1018.9 hPa 0 mm - 1095 W/m² -
1788196770 31.67° C 73% 1019.1 hPa 0 mm - 347 W/m² -
1788196466 31.67° C 75% 1019.2 hPa 0 mm - 642 W/m² -
1788196162 31.67° C 75% 1019.2 hPa 0 mm - 530 W/m² -
1788195858 31.67° C 73% 1019.3 hPa 0 mm - 677 W/m² -
1788195555 31.67° C 75% 1019.3 hPa 0 mm - 747 W/m² -
1788195250 31.67° C 73% 1019.5 hPa 0 mm - 495 W/m² -
1788194947 31.11° C 76% 1019.4 hPa 0 mm - 779 W/m² -

* Rain latest hour (hover to see other rain measurements)
** Current wind speed in m/s (hover to see current wind gust speed)